[[{"header":{"parameterUnit":"m.s-1","parameterCategory":1,"la1":30.2991,"la2":30.254,"lo1":-89.0895,"lo2":-89.0444,"dy":0.0017,"dx":0.0017,"nx":28,"ny":28,"refTime":"2025-12-11T03:00:00:Z","depth":0,"parameterNumber":2,"parameterNumberName":"U-component_of_WINDS"},"data":[0,0,0,0,0,0,0,0,0,0,0,0,0,0,0,0,0,0,0,0,0,0,0,0,0,0,0,0,0,0,0,0,0,0,0,0,0,0,0,0,0,0,0,0,0,0,0,0,0,0,0,0,0,0,0,0,0,0,-2.0585,-2.0585,0,-2.0566,-2.0565,-2.0565,-2.0515,-2.0514,-2.0513,-2.0512,-2.0492,-2.0493,-2.0493,0,0,0,0,0,0,0,0,0,0,0,0,0,-2.0581,-2.0581,-2.0586,-2.0585,-2.0585,-2.0566,-2.0565,-2.0565,-2.0516,-2.0514,-2.0513,-2.0512,-2.0492,-2.0493,-2.0493,0,0,0,0,0,0,0,0,0,0,0,0,0,-2.0574,-2.0581,-2.0586,-2.0558,-2.0555,-2.0566,-2.0565,-2.0565,-2.0516,-2.0514,-2.0513,-2.0511,-2.0492,-2.0493,-2.0493,-2.0529,0,0,-2.0495,-2.0496,0,0,0,0,0,0,0,0,-2.0574,-2.0574,-2.0562,-2.056,-2.0557,-2.0541,-2.0556,-2.0553,-2.0516,-2.0531,-2.0512,-2.051,-2.051,-2.0509,-2.0509,-2.0528,-2.0527,-2.0495,-2.0496,-2.0496,-2.0496,0,0,0,0,0,0,0,-2.0575,-2.0575,-2.0578,-2.0562,-2.0559,-2.0547,-2.0544,-2.0555,-2.0529,-2.0529,-2.0526,-2.0524,-2.0508,-2.0508,-2.0508,-2.0527,-2.0495,-2.0496,-2.0496,-2.0497,-2.0573,-2.0574,0,0,0,0,0,0,-2.0579,-2.0576,-2.0578,-2.0577,-2.0562,-2.0548,-2.0545,-2.0548,-2.0529,-2.0525,-2.0525,-2.0522,-2.0508,-2.0507,-2.0507,-2.0546,-2.0496,-2.0497,-2.0497,-2.0571,-2.0573,-2.0575,0,0,0,0,0,0,-2.0579,-2.058,-2.0579,-2.0575,-2.0574,-2.055,-2.0553,-2.0548,-2.0548,-2.0526,-2.0521,-2.053,-2.0507,-2.0506,-2.0523,-2.0545,-2.0497,-2.0498,-2.0569,-2.0572,-2.0574,-2.0625,0,0,0,0,0,0,-2.058,-2.058,-2.0594,-2.0576,-2.0575,-2.0596,-2.0555,-2.0549,-2.0549,-2.0545,-2.0529,-2.0525,-2.0505,-2.0523,-2.0524,-2.0545,-2.0498,-2.0567,-2.057,-2.0573,-2.0621,-2.0629,-2.0635,0,0,0,0,0,-2.058,-2.061,-2.0595,-2.0595,-2.0591,-2.0597,-2.0596,-2.0573,-2.0552,-2.0564,-2.055,-2.0526,-2.0543,-2.0525,-2.0526,-2.0547,-2.0566,-2.0569,-2.0573,-2.0618,-2.0627,-2.0635,0,0,0,0,0,0,-2.0631,-2.0607,-2.059,-2.0615,-2.0609,-2.0589,-2.0604,-2.0584,-2.0583,-2.0578,-2.0549,-2.0546,-2.0567,-2.0559,-2.054,-2.058,-2.055,-2.0554,-2.0584,-2.0593,-2.06,-2.06,-2.0499,0,0,0,0,0,-2.0645,-2.0652,-2.0631,-2.0655,-2.0653,-2.0629,-2.0631,-2.0614,-2.0606,-2.0603,-2.059,-2.0583,-2.0586,-2.0589,-2.0592,-2.0621,-2.0616,-2.0636,-2.0643,-2.0649,-2.0652,-2.0665,-2.0673,-2.0587,-2.0587,-2.0587,0,0,-2.0675,-2.0662,-2.0669,-2.0665,-2.0658,-2.0666,-2.0627,-2.0638,-2.0643,-2.0604,-2.0619,-2.061,-2.06,-2.0623,-2.0633,-2.0617,-2.0675,-2.0653,-2.0658,-2.0658,-2.0669,-2.0678,-2.0685,-2.0589,-2.0589,-2.0588,0,0,-2.0732,-2.0724,-2.0742,-2.0736,-2.0725,-2.0709,-2.0714,-2.0697,-2.0689,-2.0704,-2.0674,-2.0681,-2.0688,-2.0682,-2.068,-2.0734,-2.0711,-2.0736,-2.0772,-2.0785,-2.0792,-2.0798,-2.0815,-2.0822,-2.074,-2.074,-2.074,0,-2.0769,-2.078,-2.0754,-2.0766,-2.0765,-2.073,-2.0748,-2.0743,-2.0734,-2.0734,-2.0717,-2.0724,-2.0715,-2.0735,-2.0749,-2.0749,-2.0752,-2.0737,-2.0793,-2.0798,-2.0804,-2.082,-2.0827,-2.0743,-2.0742,-2.0742,-2.0742,0,-2.0826,-2.0834,-2.085,-2.0841,-2.0842,-2.0857,-2.0833,-2.0837,-2.082,-2.0806,-2.082,-2.0809,-2.0807,-2.0811,-2.0794,-2.0829,-2.0819,-2.0798,-2.0767,-2.0815,-2.083,-2.0836,-2.0747,-2.0746,-2.0745,-2.0744,0,0,-2.0914,-2.0891,-2.0897,-2.0892,-2.0878,-2.0883,-2.0896,-2.0894,-2.0898,-2.0893,-2.0902,-2.0909,-2.0889,-2.0887,-2.0869,-2.0881,-2.0922,-2.0858,-2.0857,-2.0868,-2.0957,-2.0972,-2.098,-2.0908,-2.0909,-2.091,-2.0957,0,-2.0966,-2.0987,-2.0964,-2.0989,-2.0995,-2.0962,-2.0974,-2.0966,-2.0953,-2.0956,-2.0943,-2.0947,-2.0921,-2.0919,-2.093,-2.0915,-2.0939,-2.0912,-2.0915,-2.0915,-2.0916,-2.0988,-2.1004,-2.1049,-2.0963,-2.0964,-2.0965,0,-2.103,-2.1027,-2.1052,-2.1035,-2.1037,-2.1048,-2.1043,-2.1047,-2.1038,-2.1027,-2.1025,-2.1003,-2.1014,-2.0986,-2.1,-2.0981,-2.0982,-2.0975,-2.0976,-2.0974,-2.0942,-2.0986,-2.1063,-2.107,-2.0974,-2.0974,-2.0973,0,-2.1089,-2.1092,-2.1107,-2.1104,-2.1085,-2.1093,-2.1085,-2.1074,-2.1074,-2.1071,-2.107,-2.1069,-2.1067,-2.1067,-2.1045,-2.1026,-2.1061,-2.1031,-2.1052,-2.1053,-2.106,-2.1059,-2.1136,-2.1063,-2.1063,-2.1063,-2.1063,0,-2.1148,-2.1165,-2.1133,-2.1142,-2.1159,-2.1133,-2.1151,-2.114,-2.1131,-2.1137,-2.1109,-2.1116,-2.1087,-2.1091,-2.1074,-2.1087,-2.1088,-2.1079,-2.1074,-2.108,-2.1081,-2.1079,-2.1074,-2.1065,-2.1065,-2.1064,-2.1064,0,-2.1217,-2.1196,-2.121,-2.1191,-2.1187,-2.12,-2.1183,-2.1191,-2.1176,-2.1185,-2.1185,-2.1162,-2.1165,-2.1143,-2.1142,-2.1131,-2.1151,-2.1142,-2.1154,-2.1151,-2.1172,-2.117,-2.1249,-2.1257,-2.1181,-2.1182,-2.1182,0,-2.1255,-2.1267,-2.1249,-2.125,-2.1244,-2.1248,-2.1247,-2.1222,-2.1223,-2.1213,-2.1221,-2.1221,-2.122,-2.1225,-2.1208,-2.1207,-2.1196,-2.1224,-2.1195,-2.1201,-2.1194,-2.1193,-2.1193,-2.1229,-2.123,-2.1231,-2.1232,0,-2.1325,-2.1314,-2.1314,-2.1311,-2.1311,-2.1307,-2.1302,-2.1305,-2.1277,-2.128,-2.1281,-2.128,-2.1278,-2.1278,-2.1273,-2.1265,-2.1244,-2.1241,-2.1245,-2.1251,-2.1257,-2.1252,-2.1168,-2.1239,-2.1238,-2.1238,-2.1237,-2.1237,-2.1378,-2.1386,-2.1374,-2.1375,-2.1368,-2.1363,-2.1369,-2.1355,-2.1356,-2.1352,-2.1338,-2.1342,-2.1331,-2.1322,-2.1316,-2.1319,-2.1305,-2.1312,-2.1313,-2.1315,-2.1318,-2.1258,-2.1318,-2.1318,-2.1318,-2.1317,-2.1317,0,-2.1444,-2.1435,-2.1436,-2.1429,-2.1429,-2.1409,-2.1402,-2.1403,-2.1407,-2.1399,-2.1398,-2.14,-2.1399,-2.1383,-2.138,-2.1385,-2.1375,-2.1385,-2.1384,-2.1382,-2.1331,-2.1327,-2.1393,-2.1393,-2.1393,-2.1393,-2.1393,-2.1393,-2.1479,-2.1491,-2.1479,-2.1487,-2.1477,-2.1481,-2.1478,-2.1473,-2.1466,-2.1469,-2.1469,-2.1458,-2.1446,-2.1442,-2.1441,-2.1436,-2.1436,-2.1449,-2.144,-2.1393,-2.1386,-2.1379,-2.1374,-2.1449,-2.1449,-2.149,-2.1491,-2.1491]},{"header":{"parameterUnit":"m.s-1","parameterCategory":1,"la1":30.2991,"la2":30.254,"lo1":-89.0895,"lo2":-89.0444,"dy":0.0017,"dx":0.0017,"nx":28,"ny":28,"refTime":"2025-12-11T03:00:00:Z","depth":0,"parameterNumber":3,"parameterNumberName":"V-component_of_WINDS"},"data":[0,0,0,0,0,0,0,0,0,0,0,0,0,0,0,0,0,0,0,0,0,0,0,0,0,0,0,0,0,0,0,0,0,0,0,0,0,0,0,0,0,0,0,0,0,0,0,0,0,0,0,0,0,0,0,0,0,0,0.9001,0.9001,0,0.9061,0.9062,0.9063,0.9066,0.9066,0.9065,0.9064,0.9129,0.9131,0.9133,0,0,0,0,0,0,0,0,0,0,0,0,0,0.8891,0.8893,0.9001,0.9001,0.9002,0.9061,0.9062,0.9063,0.9066,0.9066,0.9065,0.9064,0.9128,0.9131,0.9134,0,0,0,0,0,0,0,0,0,0,0,0,0,0.8944,0.8894,0.9,0.9011,0.9012,0.9061,0.9062,0.9063,0.9067,0.9066,0.9065,0.9064,0.9127,0.913,0.9134,0.9177,0,0,0.9145,0.9146,0,0,0,0,0,0,0,0,0.8941,0.8948,0.9009,0.901,0.9012,0.9055,0.9047,0.9101,0.9067,0.9046,0.9064,0.9063,0.9105,0.911,0.9124,0.918,0.9183,0.9145,0.9147,0.9149,0.915,0,0,0,0,0,0,0,0.8937,0.8945,0.9025,0.901,0.9012,0.9014,0.902,0.9057,0.9081,0.9048,0.9048,0.9055,0.9106,0.9121,0.9126,0.9184,0.9145,0.9148,0.915,0.9152,0.928,0.9282,0,0,0,0,0,0,0.8931,0.8942,0.9023,0.9027,0.8973,0.9017,0.9024,0.9042,0.9081,0.9085,0.9056,0.9055,0.9115,0.9122,0.9128,0.9183,0.9149,0.9152,0.9154,0.9279,0.9281,0.9282,0,0,0,0,0,0,0.8929,0.8938,0.902,0.8985,0.8995,0.902,0.9041,0.9044,0.9059,0.9087,0.9091,0.9067,0.9115,0.9123,0.9165,0.9185,0.9154,0.9157,0.9278,0.928,0.9281,0.9292,0,0,0,0,0,0,0.8926,0.8937,0.8953,0.8985,0.8997,0.9056,0.9042,0.9046,0.9065,0.9064,0.9098,0.9103,0.9115,0.916,0.9169,0.919,0.916,0.9276,0.9278,0.9281,0.929,0.9294,0.9297,0,0,0,0,0,0.8922,0.8954,0.8954,0.8964,0.9017,0.9057,0.9064,0.9076,0.9066,0.9083,0.9101,0.9101,0.9181,0.9164,0.9174,0.9196,0.9275,0.9278,0.928,0.9288,0.9293,0.9297,0,0,0,0,0,0,0.8924,0.8958,0.8959,0.9002,0.9026,0.9057,0.9079,0.9081,0.9109,0.9108,0.9122,0.913,0.9172,0.9188,0.9169,0.9241,0.9227,0.9232,0.9229,0.9234,0.9238,0.9234,0.9163,0,0,0,0,0,0.893,0.8958,0.8986,0.9022,0.9034,0.9054,0.9072,0.9079,0.9106,0.9116,0.9137,0.9164,0.9195,0.9215,0.9245,0.9292,0.93,0.9312,0.9316,0.9318,0.9323,0.9351,0.9357,0.9291,0.9291,0.9291,0,0,0.8942,0.8964,0.8981,0.9023,0.9043,0.9073,0.9063,0.9095,0.9118,0.9121,0.9163,0.9179,0.921,0.9255,0.9276,0.9269,0.9343,0.9322,0.9324,0.9328,0.9355,0.9361,0.9367,0.9293,0.9293,0.9293,0,0,0.898,0.8998,0.903,0.9051,0.9081,0.9094,0.9102,0.9133,0.9144,0.9185,0.9189,0.9217,0.927,0.9292,0.931,0.9357,0.9359,0.9367,0.9387,0.9414,0.9419,0.9424,0.9443,0.9449,0.9371,0.9371,0.9371,0,0.8991,0.9036,0.9047,0.908,0.9099,0.9102,0.9137,0.9156,0.9195,0.9209,0.9201,0.9268,0.9289,0.934,0.9352,0.9365,0.9376,0.9364,0.9417,0.9422,0.9427,0.9445,0.9452,0.9372,0.9372,0.9372,0.9371,0,0.905,0.9081,0.9103,0.9141,0.9162,0.9195,0.9213,0.9234,0.9239,0.9254,0.9298,0.9322,0.9358,0.9371,0.9377,0.9424,0.9419,0.9414,0.94,0.9434,0.9451,0.9458,0.9373,0.9373,0.9372,0.9372,0,0,0.9092,0.9134,0.9143,0.9161,0.9194,0.9219,0.9253,0.9288,0.9307,0.9333,0.9363,0.9408,0.9404,0.9425,0.9433,0.9457,0.9495,0.9449,0.945,0.9459,0.9551,0.9556,0.9564,0.9496,0.9497,0.9499,0.955,0,0.9135,0.9194,0.9206,0.9258,0.9288,0.9292,0.9322,0.9347,0.9362,0.9391,0.9407,0.944,0.9431,0.9443,0.9467,0.9486,0.9515,0.9482,0.9526,0.9528,0.9521,0.9573,0.9578,0.9625,0.9556,0.9557,0.9558,0,0.9193,0.9221,0.9276,0.9308,0.9321,0.9347,0.9381,0.9407,0.9436,0.9446,0.9469,0.9475,0.9512,0.9496,0.9548,0.9526,0.9544,0.9557,0.9559,0.9565,0.9546,0.9583,0.964,0.9648,0.9569,0.9568,0.9567,0,0.9221,0.9272,0.9313,0.9327,0.9364,0.9383,0.9399,0.9427,0.9447,0.9477,0.9491,0.9525,0.9544,0.957,0.9586,0.9572,0.9638,0.9622,0.9648,0.9648,0.9663,0.9663,0.9727,0.9672,0.9672,0.9672,0.9671,0,0.9269,0.9303,0.9326,0.9351,0.939,0.9403,0.9442,0.9458,0.9483,0.9512,0.9517,0.9545,0.9563,0.9594,0.9606,0.9649,0.9657,0.9667,0.967,0.9668,0.9667,0.9682,0.968,0.9674,0.9673,0.9673,0.9672,0,0.9308,0.9323,0.9368,0.9399,0.9408,0.9436,0.9463,0.9488,0.9503,0.954,0.955,0.9573,0.961,0.9627,0.9673,0.9681,0.973,0.973,0.9721,0.9723,0.9749,0.9747,0.9826,0.9839,0.9773,0.9774,0.9774,0,0.9338,0.9365,0.9399,0.9418,0.9435,0.9467,0.9488,0.9502,0.9524,0.956,0.9581,0.9618,0.9648,0.9707,0.9729,0.9764,0.9766,0.9791,0.9772,0.9769,0.9769,0.9768,0.9772,0.9796,0.9796,0.9797,0.9797,0,0.9392,0.9399,0.9428,0.9462,0.9487,0.9513,0.954,0.9556,0.9575,0.96,0.9637,0.966,0.9707,0.9744,0.9781,0.9799,0.9803,0.9803,0.9812,0.981,0.9805,0.981,0.9733,0.9802,0.9801,0.9801,0.9801,0.9801,0.9429,0.9454,0.9482,0.9515,0.9536,0.9561,0.9587,0.9605,0.9636,0.9675,0.9681,0.9721,0.9751,0.9801,0.982,0.9853,0.9847,0.9859,0.9862,0.9866,0.9868,0.9797,0.9859,0.9859,0.9859,0.9859,0.9859,0,0.9485,0.9503,0.9534,0.9571,0.9598,0.9597,0.9626,0.9649,0.9684,0.9711,0.9741,0.9785,0.9821,0.9846,0.9883,0.9904,0.9907,0.9914,0.9914,0.9918,0.987,0.986,0.9911,0.9911,0.9911,0.9911,0.9911,0.9911,0.9518,0.956,0.957,0.9623,0.9641,0.968,0.9698,0.9721,0.9743,0.9791,0.9821,0.9837,0.9864,0.9903,0.9937,0.9943,0.9958,0.9965,0.9972,0.9927,0.9921,0.9916,0.9907,0.9968,0.9968,1.0018,1.0019,1.0019]}]]